Regional Weather Roundup
Issued by NWS

Home | Current Version | Previous Version | Text Only | Print | Product List | Glossary Off
Versions: 1 2 3 4 5 6 7 8 9 10 11 12 13 14 15 16 17 18 19 20 21 22 23 24 25 26 27 28 29 30 31 32 33 34 35 36 37 38 39 40 41 42 43 44 45 46 47 48 49 50

000
ASUS43 KMPX 130601
RWRMN
WEATHER ROUNDUP FOR MINNESOTA
NATIONAL WEATHER SERVICE TWIN CITIES/CHANHASSEN MN
100 AM CDT SUN JUL 13 2014


NOTE: "FAIR" INDICATES FEW OR NO CLOUDS BELOW 12,000 FEET WITH NO
SIGNIFICANT WEATHER AND/OR OBSTRUCTIONS TO VISIBILITY. N/A MEANS
CURRENT SKY AND/OR WEATHER CONDITIONS ARE NOT AVAILABLE.

MNZ060>063-068>070-130700-
   Twin Cities Metro

CITY           SKY/WX    TMP DP  RH WIND       PRES   REMARKS
TWIN CITIES    CLEAR     68  65  90 SW6       29.91F
6HR MIN TEMP:  68; 6HR MAX TEMP:  76;

ST PAUL        CLEAR     67  65  93 CALM      29.91F
CRYSTAL        CLEAR     70  62  76 SW6       29.89F
BLAINE         PTCLDY    66  64  94 S3        29.90F
LAKEVILLE      CLEAR     64  63  94 SW6       29.92F
EDEN PRAIRIE   CLEAR     66  65  96 SW6       29.91F
6HR MIN TEMP:  66; 6HR MAX TEMP:  76;

SOUTH ST PAUL  CLEAR     67  64  90 SW5       29.91F
LAKE ELMO      FAIR      63  63 100 CALM      29.92F
$$
MNZ001>005-007-008-013>017-022>024-027-028-130700-
   Northwest Minnesota

CITY           SKY/WX    TMP DP  RH WIND       PRES   REMARKS
BEMIDJI        CLEAR     54  52  95 W7        29.94S
HALLOCK        PTCLDY    57  55  94 W7        29.93S
ROSEAU         PTCLDY    54  48  82 SW5       29.91F
WARROAD        CLEAR     52  48  87 W6        29.91S
THIEF RVR FALL CLEAR     54  54 100 W6        29.95S
CROOKSTON      MOCLDY    54  52  94 CALM      29.97S FOG
FOSSTON        CLEAR     54  52  94 CALM      29.96F
MOORHEAD       CLEAR     61  61 100 NW7       29.99R
PARK RAPIDS    PTCLDY    57  54  89 NW8       29.94S
$$
MNZ006-009>011-018-025>026-130700-
   North Central Minnesota

CITY           SKY/WX    TMP DP  RH WIND       PRES   REMARKS
BAUDETTE       CLEAR     51  48  89 CALM      29.90F
FLAG ISLAND    CLEAR     54  48  82 W12       29.86S
INTL FALLS     CLEAR     50  47  89 W6        29.88R
6HR MIN TEMP:  50; 6HR MAX TEMP:  73; 6HR PCP:  0.01;

WASKISH        CLEAR     55  52  88 NW5       29.91S
BIG FORK       CLEAR     54  52  94 W2        29.91S
LONGVILLE      PTCLDY    59  54  82 NW5       29.92R
GRAND RAPIDS   PTCLDY    57  52  82 NW8       29.91R
CRANE LAKE     PTCLDY    54  52  94 CALM      29.88R
ORR            PTCLDY    55  50  82 NW10G18   29.86S
COOK           PTCLDY    54  54 100 W7        29.88S
$$
MNZ012-019>021-037-130700-
   Northeast Minnesota

CITY           SKY/WX    TMP DP  RH WIND       PRES   REMARKS
DULUTH         MOCLDY    58  53  84 NW7       29.86F
6HR MIN TEMP:  58; 6HR MAX TEMP:  73; 6HR PCP:  0.02;

ELY            CLOUDY    54  52  94 W5        29.86S
HIBBING        MOCLDY    57  52  83 NW8       29.88S
EVELETH        CLOUDY    57  54  88 NW6       29.88S
DULUTH HARBOR  CLOUDY    64  55  72 W8        29.86F
TWO HARBORS    MOCLDY    59  50  72 CALM      29.80F
SILVER BAY     MOCLDY    59  54  82 W5        29.80F
GRAND MARAIS     N/A     63  51  65 VRB5      29.76F
G MARAIS ARPRT MOCLDY    57  46  67 W9G16     29.81F
$$
MNZ029>031-032-039>041-046>048-054>057-064-130700-
   West Central Minnesota

CITY           SKY/WX    TMP DP  RH WIND       PRES   REMARKS
FERGUS FALLS   PTCLDY    61  52  72 CALM      29.96S
WHEATON        CLEAR     59  52  77 NW3       30.00R
MORRIS         CLEAR     64  61  88 NW9       29.95R
ALEXANDRIA     CLEAR     64  55  72 N8        29.97R
ELBOW LAKE     FAIR      63  54  72 N5        29.96S
WADENA         CLOUDY    59  54  82 CALM      29.94S
GLENWOOD       CLEAR     64  63  94 NW7       29.95R
APPLETON       CLEAR     66  63  88 NW8       29.95S
BENSON         CLEAR     66  63  88 NW9       29.94S
ORTONVILLE     CLEAR     72  61  68 NW9       29.96S
MADISON        PTCLDY    70  64  83 W6        29.96S
WILLMAR        FAIR      68  63  83 W9        29.95S
$$
MNZ033>034-036-042>043-049>051-058-059-130700-
   Central Minnesota

CITY           SKY/WX    TMP DP  RH WIND       PRES   REMARKS
ST CLOUD       CLEAR     65  60  84 CALM      29.90F
6HR MIN TEMP:  64; 6HR MAX TEMP:  78;

SAUK CENTRE    FAIR      65  60  84 NW7       29.95R
PAYNESVILLE    CLEAR     60  59  98 SW6       29.93F
AITKIN         LGT RAIN  61  55  82 CALM      29.91R
PINE RIVER     CLOUDY    59  55  88 W5        29.96S
BRAINERD       CLOUDY    67  56  67 CALM      29.93S
STAPLES        CLOUDY    61  54  77 NW3       29.94S
LONG PRAIRIE   FAIR      61  55  82 N5        29.95S
LITTLE FALLS   CLEAR     63  55  77 NW5       29.93S
LITCHFIELD     PTCLDY    68  66  94 SW6       29.94S
BUFFALO        CLEAR     66  61  85 CALM      29.93F
MAPLE LAKE     CLEAR     66  64  91 SW3       29.92F
$$
MNZ037-044-045-052-053-130700-
   East Central Minnesota

CITY           SKY/WX    TMP DP  RH WIND       PRES   REMARKS
PRINCETON      CLEAR     64  61  88 CALM      29.90F
MORA           MOCLDY    63  55  77 CALM      29.93R
CAMBRIDGE      CLEAR     66  57  72 SW3       29.88F
RUSH CITY      PTCLDY    63  59  88 CALM      29.89F
MOOSE LAKE     MOCLDY    57  55  94 CALM      29.87F
HINCKLEY       MOCLDY    63  55  77 NW7       29.91R
CLOQUET        MOCLDY    57  55  94 CALM      29.87F
MCGREGOR       CLOUDY    59  55  88 W3        29.92R
$$
MNZ071>073-080-081-089-090-097-098-130700-
   Southwest Minnesota

CITY           SKY/WX    TMP DP  RH WIND       PRES   REMARKS
MONTEVIDEO     PTCLDY    66  63  88 NW5       29.96S
GRANITE FALLS  PTCLDY    68  64  86 SW9       29.97S
CANBY          PTCLDY    69  64  82 W9        29.99S
MARSHALL       PTCLDY    68  63  83 W9        29.96F
REDWOOD FALLS  CLEAR     70  66  87 W9        29.95F
OLIVIA         CLEAR     68  63  83 W6        29.95S
PIPESTONE      CLEAR     64  63  94 W5        30.03S
WINDOM         CLEAR     64  63  94 W6        29.99F
WORTHINGTON    CLEAR     66  64  94 W8        30.02F
JACKSON        CLEAR     63  61  94 W3        30.00S
TRACY          CLEAR     69  65  86 W5        29.99F
SLAYTON        CLEAR     66  64  92 CALM      30.02F
$$
MNZ065>067-074>077-082>085-091>093-130700-
   South Central Minnesota

CITY           SKY/WX    TMP DP  RH WIND       PRES   REMARKS
MANKATO        CLEAR     66  61  82 SW5       29.94F
NEW ULM        CLEAR     64  64 100 SW6       29.95F
ST JAMES       CLEAR     64  63  94 SW6       29.97F
FAIRMONT       CLEAR     64  61  88 CALM      29.97F
GLENCOE        CLEAR     67  63  85 SW5       29.93F
FARIBAULT      CLEAR     68  63  83 SW3       29.94F
OWATONNA       CLEAR     64  63  94 CALM      29.95F FOG
WASECA         CLEAR     61  55  82 CALM      29.97F FOG
ALBERT LEA     CLEAR     64  64 100 CALM      29.96F
$$
MNZ078>079-086>088-094>096-130700-
   Southeast Minnesota

CITY           SKY/WX    TMP DP  RH WIND       PRES   REMARKS
ROCHESTER      CLEAR     63  61  93 W7        29.96F
6HR MIN TEMP:  63; 6HR MAX TEMP:  71;

RED WING       CLEAR     64  63  94 CALM      29.91S
STANTON        CLEAR     65  62  92 SW5       29.92F
DODGE CENTER   CLEAR     64  63  94 W6        29.95F
WINONA         CLEAR     63  63 100 CALM      29.92F
AUSTIN         CLEAR     64  63  94 CALM      29.95F FOG
PRESTON        CLEAR     64  63  99 NW6       29.95F
$$
ABBREVIATIONS USED IN REMARKS
   TC - TEMPERATURES IN CELSIUS
  WCI - WIND CHILL INDEX
   HX - HEAT INDEX
  VSB - VISIBILITY
$$


USA.gov is the U.S. government's official web portal to all federal, state and local government web resources and services.